This demonstration page uses our WeatherBlox Daily Observations layout. Learn more.

Left ArrowRight Arrow

39.08367, -84.50855

Hourly Observations for April 19, 2022

Temp ( °F °C ) Dew Point ( °F °C ) Humidity (%) Winds ( mph kmh ) Pressure ( in mb ) Visibility ( mi km ) Precip ( " mm )
12:53 am 00:53 Partly Cloudy 37 2.8 31 -0.6 79 79 W 12 19 30.12 1020 10 16 0.00 0.00
1:53 am 01:53 Cloudy 38 3.3 27 -2.8 65 65 W 10 17 30.12 1020 10 16 0.00 0.00
2:53 am 02:53 Cloudy 38 3.3 29 -1.7 70 70 W 12 19 30.11 1020 10 16 0.00 0.00
3:53 am 03:53 Cloudy 37 2.8 29 -1.7 73 73 W 10 17 30.10 1019 10 16 0.00 0.00
4:53 am 04:53 Cloudy 37 2.8 30 -1.1 76 76 W 13 20 30.11 1020 10 16 0.00 0.00
5:53 am 05:53 Cloudy 37 2.8 30 -1.1 76 76 W 9 15 30.12 1020 10 16 0.00 0.00
6:53 am 06:53 Cloudy 37 2.8 28 -2.2 70 70 W 13 20 30.14 1021 10 16 0.00 0.00
7:53 am 07:53 Partly Cloudy 37 2.8 28 -2.2 70 70 W 13 20 30.16 1021 10 16 0.00 0.00
8:53 am 08:53 Cloudy 38 3.3 29 -1.7 70 70 W 15 24 30.18 1022 10 16 0.00 0.00
9:53 am 09:53 Cloudy 40 4.4 31 -0.6 70 70 W 12 19 30.19 1023 10 16 0.00 0.00
10:53 am 10:53 Mostly Cloudy 43 6.1 31 -0.6 63 63 W 12 19 30.20 1023 10 16 0.00 0.00
11:53 am 11:53 Cloudy 44 6.7 29 -1.7 55 55 WNW 8 13 30.22 1023 10 16 0.00 0.00
12:53 pm 12:53 Cloudy 45 7.2 30 -1.1 56 56 WNW 10 17 30.22 1024 10 16 0.00 0.00
1:53 pm 13:53 Cloudy 46 7.8 30 -1.1 54 54 W 14 22 30.23 1024 10 16 0.00 0.00
2:53 pm 14:53 Cloudy 49 9.4 31 -0.6 50 50 W 17 28 30.22 1024 10 16 0.00 0.00
3:53 pm 15:53 Mostly Cloudy 49 9.4 29 -1.7 46 46 W 17 28 30.22 1023 10 16 0.00 0.00
4:53 pm 16:53 Mostly Cloudy 51 10.6 29 -1.7 43 43 W 17 28 30.22 1023 10 16 0.00 0.00
5:53 pm 17:53 Partly Cloudy 52 11.1 29 -1.7 41 41 W 14 22 30.21 1023 10 16 0.00 0.00
6:53 pm 18:53 Partly Cloudy 50 10 26 -3.3 39 39 W 9 15 30.22 1023 10 16 0.00 0.00
7:53 pm 19:53 Sunny 49 9.4 27 -2.8 43 43 NW 6 9 30.23 1024 10 16 0.00 0.00
8:53 pm 20:53 Clear 47 8.3 28 -2.2 48 48 NNW 3 6 30.24 1024 10 16 0.00 0.00
9:53 pm 21:53 Clear 40 4.4 33 0.6 77 77 Calm 30.26 1025 10 16 0.00 0.00
10:53 pm 22:53 Clear 38 3.3 33 0.6 83 83 Calm 30.28 1025 10 16 0.00 0.00
11:53 pm 23:53 Clear 37 2.8 34 1.1 89 89 Calm 30.29 1026 10 16 0.00 0.00

Powered by AerisWeather